Location: Unspecified
(43.4354°N, 0.0000°E)
Time: 17:09:26
(UTC+00:00)

Tiros 1 despin weight - Pass Details

Date: 28 June 2019
Orbit: 594 x 642 km, 48.2° (Epoch: 20 July)

Event Time Altitude Azimuth Distance (km) Brightness Sun altitude
Rises 20:34:20 0° 230° (SW) 2,877 ? -7.9°
Reaches altitude 10° 20:36:40 10° 227° (SW) 1,966 ? -8.2°
Maximum altitude 20:41:05 57° 149° (SSE) 716 ? -8.8°
Drops below altitude 10° 20:45:28 10° 70° (ENE) 1,946 ? -9.3°
Sets 20:47:47 0° 67° (ENE) 2,845 ? -9.6°
